This is the latest recevied weather packets stored in our database for station/object SV9TNF-56. If no packets are shown the sender has not sent any weather packets the latest 10 day(s).
| Time | Temp. | Humidity | Pressure | Rain* | Wind** | Luminosity | Snow |
|---|---|---|---|---|---|---|---|
| 1788139655 | 23.89° C | 69% | 1019 hPa | 0 mm | 16.99 m/s, 240° | - | - |
| 1788139354 | 23.89° C | 69% | 1019 hPa | 0 mm | 12.07 m/s, 192° | - | - |
| 1788139054 | 23.33° C | 72% | 1019 hPa | 0 mm | 11.18 m/s, 183° | - | - |
| 1788138755 | 23.89° C | 72% | 1019 hPa | 0 mm | 24.59 m/s, 316° | - | - |
| 1788138454 | 23.89° C | 75% | 1019 hPa | 0 mm | 15.2 m/s, 354° | - | - |
| 1788138154 | 23.89° C | 77% | 1019 hPa | 0 mm | 29.95 m/s, 328° | - | - |
| 1788137854 | 23.89° C | 75% | 1019 hPa | 0 mm | 10.28 m/s, 318° | - | - |
| 1788137554 | 23.89° C | 73% | 1019 hPa | 0 mm | 23.25 m/s, 303° | - | - |
| 1788137254 | 23.89° C | 74% | 1019 hPa | 0 mm | 15.2 m/s, 260° | - | - |
| 1788136954 | 23.89° C | 73% | 1019 hPa | 0 mm | 12.52 m/s, 272° | - | - |
| 1788136654 | 23.89° C | 71% | 1019 hPa | 0 mm | 15.2 m/s, 244° | - | - |
| 1788136354 | 23.89° C | 71% | 1019 hPa | 0 mm | 15.2 m/s, 328° | - | - |
| 1788136060 | 23.89° C | 73% | 1018.6 hPa | 0 mm | 17.88 m/s, 294° | - | - |
| 1788135753 | 23.89° C | 73% | 1019 hPa | 0 mm | 17.88 m/s, 300° | - | - |
| 1788135453 | 23.89° C | 73% | 1019 hPa | 0 mm | 21.46 m/s, 312° | - | - |
| 1788135153 | 23.89° C | 73% | 1018.6 hPa | 0 mm | 17.88 m/s, 330° | - | - |
| 1788134853 | 23.89° C | 74% | 1019 hPa | 0 mm | 22.8 m/s, 334° | - | - |
| 1788134553 | 23.89° C | 75% | 1019 hPa | 0 mm | 18.33 m/s, 300° | - | - |
| 1788134253 | 23.89° C | 75% | 1019 hPa | 0 mm | 16.09 m/s, 318° | - | - |
| 1788133953 | 23.89° C | 75% | 1018.6 hPa | 0 mm | 18.33 m/s, 294° | - | - |
| 1788133652 | 23.89° C | 73% | 1019 hPa | 0 mm | 14.31 m/s, 306° | - | - |
| 1788133353 | 23.89° C | 71% | 1019 hPa | 0 mm | 13.41 m/s, 318° | - | - |
| 1788133052 | 23.89° C | 74% | 1019 hPa | 0 mm | 13.86 m/s, 330° | - | - |
| 1788132752 | 24.44° C | 75% | 1019 hPa | 0 mm | 16.99 m/s, 276° | - | - |
| 1788132452 | 24.44° C | 74% | 1019 hPa | 0 mm | 16.54 m/s, 282° | - | - |
* Rain latest hour (hover to see other rain measurements)
** Current wind speed in m/s (hover to see current wind gust speed)